[[{"header":{"parameterUnit":"m.s-1","parameterCategory":2,"la1":30.2991,"la2":30.254,"lo1":-89.0895,"lo2":-89.0444,"dy":0.0017,"dx":0.0017,"nx":28,"ny":28,"refTime":"2025-09-15T21:00:00:Z","depth":"0","parameterNumber":2,"parameterNumberName":"U-component_of_CURRENTS"},"data":[0,0,0,0,0,0,0,0,0,0,0,0,0,0,0,0,0,0,0,0,0,0,0,0,0,0,0,0,0,0,0,0,0,0,0,0,0,0,0,0,0,0,0,0,0,0,0,0,0,0,0,0,0,0,0,0,0,0,0.1477,0.1477,0,0.1434,0.1434,0.1433,0.1404,0.1404,0.1405,0.1405,0.1306,0.1304,0.1301,0,0,0,0,0,0,0,0,0,0,0,0,0,0.1453,0.1453,0.1477,0.1477,0.1477,0.1435,0.1434,0.1433,0.1404,0.1404,0.1405,0.1405,0.1307,0.1304,0.1301,0,0,0,0,0,0,0,0,0,0,0,0,0,0.1438,0.1454,0.1477,0.1461,0.1459,0.1435,0.1434,0.1432,0.1404,0.1404,0.1405,0.1405,0.1308,0.1304,0.13,0.127,0,0,0.1287,0.1286,0,0,0,0,0,0,0,0,0.1439,0.1439,0.1463,0.1462,0.146,0.1428,0.1389,0.1377,0.1404,0.1421,0.1405,0.1405,0.1344,0.1337,0.1324,0.1265,0.1261,0.1287,0.1285,0.1283,0.1282,0,0,0,0,0,0,0,0.144,0.144,0.1456,0.1463,0.1461,0.1427,0.1426,0.1386,0.1378,0.1419,0.1418,0.1419,0.1342,0.1328,0.1321,0.1259,0.1287,0.1284,0.1281,0.1279,0.1341,0.1345,0,0,0,0,0,0,0.1458,0.1442,0.1458,0.1456,0.1454,0.1428,0.1426,0.1435,0.1379,0.1373,0.1419,0.1418,0.1335,0.1326,0.1318,0.1371,0.1283,0.1279,0.1277,0.1337,0.1342,0.1347,0,0,0,0,0,0,0.1458,0.146,0.146,0.145,0.1448,0.1429,0.1439,0.1434,0.143,0.1381,0.1372,0.1422,0.1335,0.1323,0.1316,0.1364,0.1277,0.1273,0.1332,0.1339,0.1345,0.1418,0,0,0,0,0,0,0.1457,0.146,0.1463,0.1452,0.145,0.1457,0.1439,0.1433,0.1432,0.143,0.1379,0.137,0.1334,0.1323,0.1312,0.1356,0.127,0.1327,0.1335,0.1343,0.1411,0.1426,0.144,0,0,0,0,0,0.1456,0.1457,0.1464,0.1465,0.1458,0.1457,0.1453,0.1437,0.1432,0.1432,0.1417,0.1372,0.1366,0.1321,0.1307,0.1352,0.1323,0.1333,0.1342,0.1404,0.1423,0.1439,0,0,0,0,0,0,0.1433,0.1454,0.1461,0.1465,0.1471,0.1454,0.1447,0.1445,0.1431,0.1429,0.1388,0.1378,0.1398,0.1376,0.1327,0.1407,0.1352,0.1359,0.1404,0.1421,0.1436,0.1427,0.1267,0,0,0,0,0,0.1436,0.1449,0.1463,0.1464,0.1471,0.1464,0.1459,0.1456,0.1447,0.1441,0.1414,0.1412,0.1426,0.1421,0.1413,0.1427,0.1498,0.1467,0.1482,0.1494,0.1487,0.1666,0.1696,0.1377,0.1377,0.1377,0,0,0.1423,0.1439,0.1442,0.1461,0.146,0.1473,0.1461,0.1462,0.1478,0.1431,0.1436,0.1441,0.1442,0.1474,0.1484,0.1457,0.1635,0.1506,0.1515,0.1501,0.1679,0.171,0.1737,0.1384,0.1382,0.1381,0,0,0.1409,0.1426,0.1436,0.1452,0.1469,0.1473,0.1482,0.1484,0.1492,0.1499,0.1502,0.1544,0.1521,0.1561,0.1573,0.1667,0.1702,0.1678,0.1733,0.1909,0.1936,0.196,0.2139,0.2178,0.1689,0.1689,0.1689,0,0.1388,0.1415,0.1434,0.1455,0.1469,0.1481,0.1498,0.151,0.151,0.1539,0.1512,0.1588,0.1572,0.1668,0.17,0.1695,0.1804,0.1654,0.1927,0.1952,0.1976,0.2152,0.2195,0.1694,0.1693,0.1693,0.1692,0,0.1394,0.1416,0.1423,0.1464,0.1481,0.1495,0.1529,0.1552,0.1565,0.159,0.1674,0.1687,0.1743,0.1767,0.1739,0.1914,0.1943,0.192,0.1872,0.2012,0.219,0.2233,0.1701,0.1699,0.1697,0.1696,0,0,0.1344,0.1413,0.1416,0.1447,0.1491,0.1508,0.1554,0.1612,0.1677,0.1698,0.1802,0.1836,0.1869,0.1891,0.1912,0.2042,0.2302,0.2044,0.2051,0.2204,0.2722,0.2751,0.2801,0.2335,0.2342,0.2347,0.2795,0,0.134,0.1387,0.1423,0.1467,0.1496,0.1542,0.1593,0.1654,0.1713,0.1818,0.189,0.1983,0.1916,0.1976,0.2094,0.2251,0.2412,0.2183,0.2577,0.2588,0.2584,0.285,0.2766,0.3158,0.2837,0.2844,0.285,0,0.1335,0.1374,0.1417,0.1501,0.152,0.1551,0.1664,0.1715,0.1864,0.1924,0.2036,0.2101,0.2283,0.2215,0.2561,0.2426,0.2573,0.2689,0.271,0.2729,0.2698,0.2961,0.3248,0.3127,0.2916,0.291,0.2906,0,0.1306,0.137,0.141,0.1434,0.1527,0.1566,0.162,0.1746,0.1851,0.202,0.2146,0.2316,0.2474,0.266,0.2843,0.2749,0.3247,0.3161,0.3338,0.3343,0.334,0.3332,0.3533,0.344,0.3439,0.3437,0.3436,0,0.1298,0.1336,0.1402,0.1428,0.1515,0.1562,0.1691,0.177,0.1949,0.2136,0.221,0.2416,0.2599,0.2867,0.2981,0.3322,0.3382,0.3419,0.3488,0.3369,0.3359,0.33,0.3175,0.3454,0.3451,0.3447,0.3444,0,0.1308,0.1322,0.1397,0.1481,0.1509,0.1584,0.1753,0.1893,0.2008,0.2273,0.2351,0.2603,0.2947,0.3134,0.3502,0.3558,0.3747,0.3919,0.3762,0.3802,0.3799,0.368,0.3822,0.3713,0.4229,0.4233,0.4236,0,0.136,0.1383,0.1461,0.155,0.1603,0.1711,0.1835,0.1927,0.2097,0.2405,0.2578,0.2925,0.3191,0.371,0.3885,0.418,0.3956,0.4255,0.4035,0.3862,0.3782,0.3538,0.3413,0.4099,0.4101,0.4102,0.4103,0,0.153,0.1526,0.1613,0.1731,0.1845,0.1948,0.2107,0.2204,0.2375,0.2563,0.2864,0.3075,0.3557,0.3827,0.4173,0.4303,0.4023,0.4296,0.4182,0.3771,0.346,0.3364,0.3727,0.4117,0.4115,0.4114,0.4114,0.4113,0.1751,0.1817,0.1912,0.2003,0.2107,0.2181,0.2238,0.2407,0.2573,0.2812,0.3025,0.331,0.3684,0.4151,0.4254,0.4335,0.419,0.4243,0.4152,0.3952,0.3708,0.4099,0.4494,0.4494,0.4495,0.4496,0.4496,0,0.2068,0.2089,0.2213,0.2275,0.2343,0.2328,0.2451,0.2485,0.2613,0.288,0.3086,0.3491,0.3796,0.4042,0.4253,0.4176,0.3957,0.4075,0.3688,0.3599,0.4067,0.3915,0.412,0.412,0.412,0.412,0.412,0.412,0.2285,0.2406,0.2358,0.2467,0.2481,0.2501,0.2507,0.2543,0.2676,0.2893,0.3102,0.3331,0.3661,0.3974,0.3988,0.3924,0.3574,0.3505,0.3412,0.3696,0.37,0.3704,0.3535,0.3657,0.3656,0.2824,0.2817,0.2813]},{"header":{"parameterUnit":"m.s-1","parameterCategory":2,"la1":30.2991,"la2":30.254,"lo1":-89.0895,"lo2":-89.0444,"dy":0.0017,"dx":0.0017,"nx":28,"ny":28,"refTime":"2025-09-15T21:00:00:Z","depth":"0","parameterNumber":3,"parameterNumberName":"V-component_of_CURRENTS"},"data":[0,0,0,0,0,0,0,0,0,0,0,0,0,0,0,0,0,0,0,0,0,0,0,0,0,0,0,0,0,0,0,0,0,0,0,0,0,0,0,0,0,0,0,0,0,0,0,0,0,0,0,0,0,0,0,0,0,0,-0.0781,-0.0782,0,-0.0877,-0.0878,-0.0879,-0.0916,-0.0915,-0.0915,-0.0915,-0.0953,-0.0954,-0.0956,0,0,0,0,0,0,0,0,0,0,0,0,0,-0.0687,-0.0689,-0.0781,-0.0782,-0.0783,-0.0877,-0.0878,-0.0879,-0.0916,-0.0915,-0.0915,-0.0915,-0.0953,-0.0954,-0.0956,0,0,0,0,0,0,0,0,0,0,0,0,0,-0.075,-0.0689,-0.0781,-0.0812,-0.0816,-0.0876,-0.0878,-0.088,-0.0916,-0.0915,-0.0915,-0.0914,-0.0952,-0.0954,-0.0956,-0.0978,0,0,-0.0962,-0.0963,0,0,0,0,0,0,0,0,-0.0746,-0.0754,-0.0807,-0.081,-0.0815,-0.0884,-0.0859,-0.091,-0.0916,-0.0878,-0.0915,-0.0914,-0.0925,-0.0929,-0.0949,-0.0979,-0.0981,-0.0962,-0.0963,-0.0964,-0.0965,0,0,0,0,0,0,0,-0.0742,-0.075,-0.0819,-0.0808,-0.0813,-0.0842,-0.085,-0.087,-0.0902,-0.0881,-0.0884,-0.0895,-0.0926,-0.0947,-0.095,-0.0982,-0.0962,-0.0964,-0.0965,-0.0966,-0.0963,-0.0962,0,0,0,0,0,0,-0.0727,-0.0746,-0.0816,-0.0822,-0.0778,-0.0844,-0.0852,-0.0862,-0.0903,-0.0909,-0.0895,-0.0896,-0.0944,-0.0948,-0.0951,-0.0954,-0.0964,-0.0966,-0.0967,-0.0964,-0.0963,-0.0961,0,0,0,0,0,0,-0.0725,-0.0733,-0.0812,-0.0786,-0.0798,-0.0845,-0.0856,-0.0864,-0.0889,-0.0914,-0.0919,-0.0911,-0.0944,-0.0949,-0.0975,-0.0956,-0.0967,-0.0969,-0.0966,-0.0964,-0.0962,-0.0974,0,0,0,0,0,0,-0.0722,-0.0731,-0.0736,-0.0785,-0.0799,-0.0852,-0.0857,-0.0866,-0.0896,-0.0898,-0.093,-0.0933,-0.0944,-0.0972,-0.0977,-0.0959,-0.097,-0.0967,-0.0965,-0.0963,-0.0975,-0.0973,-0.0971,0,0,0,0,0,-0.0718,-0.0728,-0.0735,-0.0744,-0.0802,-0.0852,-0.0863,-0.0895,-0.0897,-0.0914,-0.0933,-0.0932,-0.0959,-0.0975,-0.098,-0.0962,-0.0969,-0.0966,-0.0963,-0.0976,-0.0973,-0.0971,0,0,0,0,0,0,-0.0694,-0.0734,-0.0743,-0.0765,-0.0805,-0.0858,-0.0876,-0.0897,-0.0929,-0.0925,-0.0945,-0.095,-0.096,-0.0957,-0.0974,-0.0947,-0.0952,-0.095,-0.0959,-0.0957,-0.0955,-0.0905,-0.0972,0,0,0,0,0,-0.0689,-0.0704,-0.075,-0.0769,-0.0785,-0.083,-0.0854,-0.0876,-0.091,-0.0924,-0.0947,-0.0951,-0.0952,-0.0954,-0.0964,-0.0967,-0.0903,-0.0946,-0.0944,-0.0942,-0.0901,-0.0793,-0.0777,-0.0952,-0.0952,-0.0952,0,0,-0.0685,-0.0709,-0.0718,-0.0765,-0.0795,-0.0824,-0.0843,-0.088,-0.0897,-0.0921,-0.095,-0.0959,-0.0953,-0.0956,-0.0955,-0.0953,-0.0862,-0.0939,-0.0938,-0.0896,-0.0789,-0.0771,-0.0756,-0.095,-0.0951,-0.0951,0,0,-0.0689,-0.0705,-0.0721,-0.0753,-0.0798,-0.0823,-0.0832,-0.0886,-0.0899,-0.0933,-0.0937,-0.093,-0.096,-0.0938,-0.0931,-0.0915,-0.0861,-0.0915,-0.0861,-0.0759,-0.0743,-0.0728,-0.0641,-0.0618,-0.0906,-0.0906,-0.0906,0,-0.0682,-0.0705,-0.0735,-0.0763,-0.0778,-0.0819,-0.0836,-0.0865,-0.092,-0.0896,-0.0937,-0.0906,-0.0938,-0.0876,-0.0886,-0.0909,-0.084,-0.0884,-0.0755,-0.0739,-0.0723,-0.0637,-0.0612,-0.0906,-0.0906,-0.0906,-0.0906,0,-0.0702,-0.072,-0.0733,-0.0769,-0.0792,-0.0816,-0.0849,-0.0859,-0.0875,-0.0879,-0.0838,-0.0868,-0.0818,-0.0846,-0.0879,-0.0774,-0.076,-0.0775,-0.0763,-0.0706,-0.062,-0.0593,-0.0906,-0.0906,-0.0906,-0.0906,0,0,-0.068,-0.0733,-0.0737,-0.0726,-0.079,-0.079,-0.081,-0.0799,-0.0726,-0.0792,-0.0685,-0.0746,-0.0715,-0.0701,-0.0716,-0.0661,-0.0548,-0.0676,-0.067,-0.059,-0.031,-0.0326,-0.0298,-0.0535,-0.053,-0.0526,-0.03,0,-0.068,-0.0702,-0.0739,-0.0735,-0.0734,-0.0757,-0.0738,-0.0726,-0.0702,-0.0612,-0.0615,-0.0532,-0.067,-0.0604,-0.0585,-0.0522,-0.0473,-0.0606,-0.0373,-0.0365,-0.0387,-0.0266,-0.0314,-0.0117,-0.0274,-0.0269,-0.0266,0,-0.0677,-0.0686,-0.0683,-0.0647,-0.0642,-0.0634,-0.0533,-0.0523,-0.0428,-0.039,-0.0327,-0.0306,-0.0232,-0.0345,-0.0233,-0.0303,-0.0308,-0.0295,-0.0286,-0.0265,-0.033,-0.0194,-0.0062,-0.0316,-0.0225,-0.0228,-0.0231,0,-0.0592,-0.0627,-0.06,-0.0607,-0.0592,-0.0545,-0.0513,-0.0431,-0.0323,-0.0198,-0.0062,-0.0028,0.009,0.0071,0.0034,-0.0059,0.018,0.0066,0.0043,0.0041,0.0069,0.0061,-0.001,0.0158,0.0158,0.0157,0.0156,0,-0.0548,-0.0508,-0.0543,-0.0515,-0.0398,-0.0434,-0.0254,-0.021,-0.0058,0.015,0.0096,0.0291,0.0209,0.0303,0.0189,0.0232,0.0312,0.011,0.0124,0.0058,0.0048,-0.0119,-0.0272,0.0165,0.0164,0.0162,0.016,0,-0.0396,-0.0459,-0.0385,-0.0369,-0.0343,-0.0231,-0.007,0.0093,0.0178,0.0466,0.0535,0.0627,0.0736,0.0638,0.0673,0.0503,0.0378,0.0474,0.0388,0.0386,0.0064,-0.0087,-0.0031,-0.0134,0.0502,0.0503,0.0504,0,-0.0296,-0.0262,-0.0224,-0.0141,-0.0108,0.0029,0.0167,0.0237,0.0423,0.069,0.0876,0.1028,0.1166,0.1175,0.0922,0.0782,0.051,0.061,0.039,0.0095,-0.0062,-0.0168,-0.027,0.0422,0.0422,0.0422,0.0422,0,-0.0054,-0.0056,0.0012,0.0139,0.027,0.043,0.0609,0.077,0.0911,0.111,0.1393,0.1512,0.1492,0.1351,0.1109,0.0931,0.0403,0.0609,0.0354,-0.0068,-0.0227,-0.0337,0.0198,0.0425,0.0425,0.0425,0.0424,0.0424,0.0185,0.0279,0.0334,0.0475,0.0619,0.0818,0.0955,0.1144,0.1396,0.1669,0.1758,0.1944,0.1678,0.1336,0.1047,0.0445,0.0449,0.0213,0.0082,0.0022,-0.0165,0.0364,0.0556,0.0557,0.0557,0.0558,0.0558,0,0.0469,0.0522,0.0672,0.0813,0.0989,0.0992,0.1248,0.1361,0.1613,0.1895,0.2077,0.2103,0.1681,0.1203,0.0448,-0.0008,-0.0224,-0.0266,-0.0471,-0.0532,0.0,-0.0103,-0.0105,-0.0105,-0.0105,-0.0105,-0.0104,-0.0104,0.0625,0.078,0.0804,0.1092,0.1195,0.1384,0.1497,0.1662,0.1846,0.2143,0.2297,0.2414,0.2065,0.0661,-0.0346,-0.0576,-0.0942,-0.097,-0.1114,-0.0854,-0.0822,-0.0792,-0.0928,-0.1103,-0.1104,-0.1627,-0.1632,-0.1637]}],[{"header":{"parameterUnit":"m.s-1","parameterCategory":2,"la1":30.2991,"la2":30.254,"lo1":-89.0895,"lo2":-89.0444,"dy":0.0017,"dx":0.0017,"nx":28,"ny":28,"refTime":"2025-09-15T21:00:00:Z","depth":"2","parameterNumber":2,"parameterNumberName":"U-component_of_CURRENTS"},"data":[0,0,0,0,0,0,0,0,0,0,0,0,0,0,0,0,0,0,0,0,0,0,0,0,0,0,0,0,0,0,0,0,0,0,0,0,0,0,0,0,0,0,0,0,0,0,0,0,0,0,0,0,0,0,0,0,0,0,0.1898,0.1899,0,0.1946,0.1946,0.1946,0.1943,0.1943,0.1942,0.1942,0.1919,0.1919,0.1919,0,0,0,0,0,0,0,0,0,0,0,0,0,0.1808,0.181,0.1898,0.1899,0.19,0.1946,0.1946,0.1947,0.1944,0.1943,0.1942,0.1942,0.1919,0.1919,0.1919,0,0,0,0,0,0,0,0,0,0,0,0,0,0.1849,0.181,0.1898,0.1905,0.1907,0.1946,0.1946,0.1947,0.1944,0.1943,0.1942,0.1942,0.1919,0.1919,0.1919,0.1933,0,0,0.1918,0.1918,0,0,0,0,0,0,0,0,0.1846,0.1852,0.1904,0.1905,0.1907,0.194,0.1906,0.1939,0.1944,0.1927,0.1942,0.1941,0.1922,0.1921,0.193,0.1932,0.1931,0.1918,0.1918,0.1918,0.1918,0,0,0,0,0,0,0,0.1844,0.185,0.1915,0.1904,0.1906,0.1908,0.1912,0.1913,0.1925,0.1929,0.1929,0.1938,0.1921,0.193,0.1929,0.193,0.1918,0.1918,0.1918,0.1918,0.1971,0.1972,0,0,0,0,0,0,0.1843,0.1847,0.1913,0.1916,0.1876,0.191,0.1915,0.1928,0.1927,0.1927,0.1939,0.1938,0.1931,0.1929,0.1928,0.1972,0.1918,0.1918,0.1918,0.1969,0.1971,0.1973,0,0,0,0,0,0,0.1841,0.1849,0.1911,0.1884,0.1892,0.1913,0.1927,0.1929,0.1942,0.1935,0.1934,0.1949,0.193,0.1928,0.1945,0.1969,0.1918,0.1918,0.1967,0.197,0.1972,0.2041,0,0,0,0,0,0,0.1838,0.1848,0.1859,0.1884,0.1894,0.1941,0.1928,0.1931,0.1949,0.1949,0.1944,0.1941,0.1929,0.1945,0.1944,0.1968,0.1917,0.1965,0.1968,0.1971,0.2036,0.2045,0.2052,0,0,0,0,0,0.1835,0.1849,0.1859,0.1867,0.1908,0.1942,0.1947,0.1957,0.1951,0.1963,0.1966,0.1941,0.1962,0.1947,0.1945,0.1969,0.1964,0.1967,0.1971,0.2033,0.2043,0.2052,0,0,0,0,0,0,0.1813,0.1851,0.1862,0.1887,0.1917,0.1942,0.1955,0.1963,0.1976,0.1974,0.1961,0.196,0.1985,0.1969,0.1952,0.1994,0.1959,0.1962,0.2007,0.2016,0.2024,0.2014,0.1917,0,0,0,0,0,0.1816,0.1836,0.1874,0.1894,0.1912,0.1936,0.1951,0.1962,0.1977,0.1983,0.1985,0.1987,0.1999,0.2001,0.2007,0.2027,0.2049,0.2043,0.2051,0.2057,0.205,0.2112,0.2125,0.1984,0.1984,0.1984,0,0,0.1811,0.1836,0.1847,0.1891,0.1913,0.1944,0.1943,0.1971,0.1994,0.1977,0.2007,0.2016,0.2013,0.2042,0.2051,0.203,0.2119,0.2062,0.2067,0.2056,0.2117,0.2131,0.2143,0.1986,0.1986,0.1985,0,0,0.1815,0.1839,0.186,0.1889,0.1931,0.1951,0.1962,0.2,0.2014,0.2047,0.2047,0.2071,0.2083,0.2094,0.2097,0.2151,0.2162,0.2157,0.2184,0.2246,0.2258,0.2269,0.2358,0.2376,0.2157,0.2157,0.2157,0,0.1808,0.1844,0.1871,0.1901,0.1924,0.1956,0.1984,0.201,0.2048,0.2066,0.2061,0.2111,0.2106,0.2147,0.2167,0.2167,0.2217,0.2149,0.2257,0.2268,0.2278,0.2366,0.2385,0.2161,0.216,0.216,0.2159,0,0.1831,0.1863,0.1878,0.1928,0.1954,0.1986,0.2027,0.2057,0.2078,0.2105,0.2156,0.2171,0.2195,0.2209,0.22,0.2271,0.2293,0.2266,0.2233,0.2296,0.2385,0.2404,0.2166,0.2165,0.2164,0.2163,0,0,0.1813,0.1881,0.1889,0.191,0.1972,0.199,0.2039,0.2091,0.2127,0.2166,0.2219,0.2245,0.2261,0.2266,0.2277,0.2325,0.2449,0.2328,0.2329,0.2417,0.2625,0.2531,0.2542,0.2452,0.2455,0.2457,0.2676,0,0.1827,0.1874,0.1912,0.1955,0.1981,0.2025,0.2067,0.2113,0.2162,0.2224,0.2256,0.2307,0.2283,0.2312,0.2357,0.2432,0.2494,0.2394,0.2548,0.2553,0.2461,0.2557,0.2338,0.2503,0.2694,0.2697,0.2699,0,0.1841,0.1871,0.1911,0.1966,0.1983,0.2009,0.2077,0.2122,0.2213,0.2258,0.2317,0.2356,0.2442,0.2406,0.2561,0.2507,0.2565,0.2615,0.2624,0.2514,0.249,0.2462,0.2529,0.273,0.2727,0.2725,0.2723,0,0.1802,0.1869,0.1894,0.1914,0.1983,0.2002,0.204,0.2122,0.2184,0.2287,0.2359,0.2445,0.2526,0.2597,0.2695,0.2647,0.2878,0.2821,0.2795,0.2792,0.2618,0.2592,0.2922,0.2922,0.2921,0.2921,0.292,0,0.1801,0.1818,0.1872,0.1883,0.192,0.1968,0.2029,0.2087,0.2201,0.2302,0.2368,0.2483,0.258,0.2715,0.276,0.2855,0.2936,0.2822,0.2839,0.2639,0.2614,0.2796,0.2779,0.2929,0.2927,0.2925,0.2924,0,0.1756,0.1795,0.1822,0.1881,0.1901,0.1919,0.2023,0.2093,0.219,0.2334,0.2379,0.2564,0.273,0.2824,0.2989,0.2952,0.3037,0.3044,0.2815,0.2797,0.2898,0.2882,0.3034,0.3033,0.3031,0.303,0.3029,0,0.1748,0.1754,0.1804,0.1842,0.1869,0.1916,0.198,0.2074,0.2173,0.2392,0.2483,0.2675,0.2793,0.2991,0.2983,0.3046,0.309,0.2859,0.268,0.2907,0.2909,0.2895,0.2881,0.252,0.2515,0.2511,0.2507,0,0.1743,0.1749,0.1784,0.184,0.1895,0.1953,0.2047,0.211,0.2262,0.238,0.259,0.2686,0.2846,0.2806,0.2844,0.2837,0.2813,0.2772,0.3115,0.249,0.2429,0.2428,0.2431,0.2471,0.2474,0.2477,0.2479,0.248,0.1756,0.1764,0.1816,0.1856,0.1931,0.1991,0.2003,0.2136,0.2247,0.2346,0.2519,0.2548,0.2604,0.2517,0.2502,0.2478,0.2635,0.2506,0.2516,0.2532,0.2398,0.2333,0.2336,0.2339,0.2341,0.2343,0.2345,0,0.1762,0.1782,0.1844,0.1883,0.1927,0.1974,0.2064,0.2049,0.2133,0.2212,0.2278,0.2083,0.207,0.2145,0.2051,0.2052,0.2007,0.1977,0.1905,0.1945,0.1979,0.1812,0.1598,0.1596,0.1593,0.1591,0,0,0.178,0.1802,0.1805,0.1854,0.1894,0.1892,0.1905,0.1908,0.1929,0.1844,0.18,0.1867,0.2034,0.1747,0.1749,0.1669,0.1778,0.1602,0.2205,0.2158,0.2188,0.2298,0.2087,0,0,0,0,0]},{"header":{"parameterUnit":"m.s-1","parameterCategory":2,"la1":30.2991,"la2":30.254,"lo1":-89.0895,"lo2":-89.0444,"dy":0.0017,"dx":0.0017,"nx":28,"ny":28,"refTime":"2025-09-15T21:00:00:Z","depth":"2","parameterNumber":3,"parameterNumberName":"V-component_of_CURRENTS"},"data":[0,0,0,0,0,0,0,0,0,0,0,0,0,0,0,0,0,0,0,0,0,0,0,0,0,0,0,0,0,0,0,0,0,0,0,0,0,0,0,0,0,0,0,0,0,0,0,0,0,0,0,0,0,0,0,0,0,0,-0.0237,-0.0238,0,-0.0294,-0.0294,-0.0295,-0.0333,-0.0334,-0.0334,-0.0334,-0.0352,-0.0352,-0.0352,0,0,0,0,0,0,0,0,0,0,0,0,0,-0.0185,-0.0186,-0.0237,-0.0238,-0.0239,-0.0294,-0.0295,-0.0295,-0.0333,-0.0334,-0.0334,-0.0335,-0.0352,-0.0352,-0.0352,0,0,0,0,0,0,0,0,0,0,0,0,0,-0.0221,-0.0186,-0.0237,-0.0265,-0.0268,-0.0294,-0.0295,-0.0295,-0.0333,-0.0334,-0.0334,-0.0335,-0.0352,-0.0352,-0.0352,-0.0343,0,0,-0.0353,-0.0353,0,0,0,0,0,0,0,0,-0.0219,-0.0223,-0.026,-0.0263,-0.0267,-0.0308,-0.0283,-0.031,-0.0333,-0.0308,-0.0334,-0.0335,-0.0333,-0.0335,-0.0344,-0.0344,-0.0345,-0.0353,-0.0353,-0.0353,-0.0353,0,0,0,0,0,0,0,-0.0216,-0.022,-0.0259,-0.0261,-0.0265,-0.0283,-0.0288,-0.0288,-0.0316,-0.031,-0.0313,-0.032,-0.0335,-0.0344,-0.0345,-0.0345,-0.0353,-0.0353,-0.0353,-0.0353,-0.0383,-0.0384,0,0,0,0,0,0,-0.0209,-0.0218,-0.0257,-0.0261,-0.0244,-0.0283,-0.0289,-0.0293,-0.0317,-0.0321,-0.032,-0.0322,-0.0343,-0.0345,-0.0346,-0.0355,-0.0353,-0.0353,-0.0353,-0.0383,-0.0384,-0.0384,0,0,0,0,0,0,-0.0207,-0.0212,-0.0255,-0.0241,-0.0248,-0.0283,-0.0288,-0.0294,-0.0308,-0.0325,-0.0329,-0.0327,-0.0344,-0.0345,-0.0357,-0.0355,-0.0353,-0.0353,-0.0382,-0.0383,-0.0384,-0.0361,0,0,0,0,0,0,-0.0206,-0.0211,-0.0209,-0.0241,-0.0249,-0.0263,-0.0288,-0.0295,-0.0311,-0.0315,-0.0332,-0.0334,-0.0344,-0.0356,-0.0357,-0.0355,-0.0354,-0.0381,-0.0382,-0.0384,-0.0361,-0.0361,-0.0362,0,0,0,0,0,-0.0204,-0.019,-0.0208,-0.0213,-0.0246,-0.0262,-0.0268,-0.0294,-0.0311,-0.031,-0.0334,-0.0334,-0.0365,-0.0357,-0.0357,-0.0356,-0.0381,-0.0382,-0.0384,-0.0361,-0.0361,-0.0362,0,0,0,0,0,0,-0.0161,-0.0194,-0.0214,-0.0211,-0.0236,-0.0269,-0.0269,-0.0293,-0.0312,-0.0315,-0.0337,-0.034,-0.0352,-0.036,-0.035,-0.0372,-0.0375,-0.0376,-0.0358,-0.0358,-0.0358,-0.0341,-0.0354,0,0,0,0,0,-0.0153,-0.0157,-0.0192,-0.0191,-0.02,-0.0237,-0.0248,-0.0268,-0.0291,-0.0301,-0.0318,-0.034,-0.0358,-0.0362,-0.0376,-0.0379,-0.0389,-0.0383,-0.0383,-0.0383,-0.0372,-0.0399,-0.04,-0.0389,-0.0389,-0.0389,0,0,-0.0137,-0.0156,-0.0158,-0.0183,-0.0204,-0.0209,-0.0244,-0.0256,-0.0264,-0.0297,-0.0309,-0.0337,-0.0361,-0.0373,-0.0379,-0.0377,-0.0393,-0.0385,-0.0384,-0.0373,-0.04,-0.0401,-0.0402,-0.039,-0.039,-0.039,0,0,-0.0102,-0.0123,-0.0114,-0.0132,-0.0161,-0.0185,-0.0188,-0.0224,-0.0243,-0.0262,-0.0295,-0.0322,-0.0343,-0.0365,-0.0378,-0.0385,-0.0395,-0.0395,-0.0375,-0.0402,-0.0402,-0.0403,-0.0417,-0.0419,-0.0392,-0.0392,-0.0392,0,-0.0082,-0.0078,-0.0113,-0.011,-0.012,-0.0171,-0.0164,-0.019,-0.0228,-0.0237,-0.026,-0.0313,-0.0338,-0.0355,-0.0371,-0.0383,-0.0398,-0.0369,-0.04,-0.0401,-0.0402,-0.0416,-0.0418,-0.0391,-0.0391,-0.0391,-0.0391,0,-0.0041,-0.0043,-0.0037,-0.0055,-0.0069,-0.007,-0.0112,-0.0129,-0.0165,-0.0194,-0.0225,-0.0273,-0.0301,-0.0324,-0.0352,-0.0374,-0.0382,-0.0398,-0.0394,-0.0401,-0.0416,-0.0419,-0.039,-0.039,-0.039,-0.0391,0,0,0.0012,-0.0005,-0.0005,-0.0006,-0.0041,-0.0047,-0.006,-0.0084,-0.0083,-0.0142,-0.0142,-0.0214,-0.0248,-0.0267,-0.0309,-0.0343,-0.0377,-0.0375,-0.0377,-0.0378,-0.0429,-0.0449,-0.0455,-0.0401,-0.0401,-0.0402,-0.0435,0,0.0052,0.0074,0.005,0.0062,0.0069,0.0021,0.0017,-0.0015,-0.0046,-0.0058,-0.0127,-0.0147,-0.0223,-0.0236,-0.0286,-0.0342,-0.0384,-0.0365,-0.043,-0.0432,-0.0441,-0.0459,-0.0426,-0.0454,-0.0438,-0.0439,-0.0439,0,0.0098,0.0105,0.0128,0.012,0.0119,0.0116,0.0104,0.0095,0.006,0.0037,-0.0005,-0.0054,-0.0112,-0.0176,-0.0285,-0.027,-0.0352,-0.0407,-0.041,-0.0436,-0.0458,-0.0446,-0.046,-0.0444,-0.0444,-0.0443,-0.0443,0,0.0151,0.0158,0.0177,0.0173,0.0157,0.0159,0.0151,0.0125,0.0139,0.0104,0.0117,0.0028,0.0014,-0.0111,-0.0243,-0.0264,-0.0353,-0.0391,-0.0488,-0.049,-0.0476,-0.0476,-0.0478,-0.0478,-0.0478,-0.0478,-0.0478,0,0.02,0.0212,0.0203,0.0213,0.0242,0.0211,0.0245,0.0224,0.0232,0.0265,0.0172,0.0191,0.0027,-0.0047,-0.0198,-0.0341,-0.0322,-0.0483,-0.0503,-0.0469,-0.0468,-0.047,-0.0469,-0.0479,-0.0479,-0.0479,-0.0479,0,0.0236,0.0237,0.0259,0.0259,0.0266,0.0283,0.0316,0.0348,0.0338,0.0387,0.0384,0.0332,0.0227,0.0056,-0.0115,-0.0256,-0.0408,-0.047,-0.0414,-0.0428,-0.0539,-0.0536,-0.0579,-0.0581,-0.0581,-0.0582,-0.0583,0,0.024,0.0257,0.0292,0.0318,0.0316,0.0349,0.0384,0.0398,0.0446,0.0475,0.0514,0.0444,0.0401,0.0152,-0.0103,-0.0355,-0.0403,-0.0491,-0.0543,-0.0536,-0.0551,-0.0547,-0.0543,-0.0513,-0.0513,-0.0513,-0.0513,0,0.0235,0.0254,0.0277,0.0344,0.0388,0.0455,0.0509,0.0577,0.0605,0.0668,0.0731,0.0704,0.0463,0.0235,-0.0111,-0.0288,-0.0453,-0.0501,-0.0497,-0.0497,-0.0477,-0.0491,-0.0488,-0.0513,-0.0513,-0.0513,-0.0513,-0.0513,0.0211,0.0239,0.0282,0.0354,0.0425,0.0535,0.0629,0.0712,0.0827,0.0919,0.0874,0.0844,0.0563,0.0129,-0.0148,-0.0439,-0.0459,-0.057,-0.0568,-0.0567,-0.0558,-0.0542,-0.0587,-0.0587,-0.0587,-0.0588,-0.0588,0,0.0174,0.0225,0.0286,0.039,0.0502,0.0543,0.0697,0.0816,0.0993,0.1021,0.1064,0.0782,0.0514,0.0198,-0.023,-0.0501,-0.0514,-0.058,-0.0537,-0.0536,-0.0535,-0.0523,-0.0543,-0.0544,-0.0544,-0.0544,0,0,0.0146,0.0207,0.0268,0.0433,0.0534,0.0717,0.084,0.1012,0.1093,0.1139,0.1104,0.0985,0.0598,0.0297,-0.0064,-0.029,-0.0347,-0.0337,-0.035,-0.0255,-0.025,-0.0513,-0.0493,0,0,0,0,0]}],[{"header":{"parameterUnit":"m.s-1","parameterCategory":2,"la1":30.2991,"la2":30.254,"lo1":-89.0895,"lo2":-89.0444,"dy":0.0017,"dx":0.0017,"nx":28,"ny":28,"refTime":"2025-09-15T21:00:00:Z","depth":"4","parameterNumber":2,"parameterNumberName":"U-component_of_CURRENTS"},"data":[0,0,0,0,0,0,0,0,0,0,0,0,0,0,0,0,0,0,0,0,0,0,0,0,0,0,0,0,0,0,0,0,0,0,0,0,0,0,0,0,0,0,0,0,0,0,0,0,0,0,0,0,0,0,0,0,0,0,0.0755,0.0756,0,0.0846,0.0847,0.0848,0.092,0.092,0.0921,0.0921,0.1007,0.1009,0.1011,0,0,0,0,0,0,0,0,0,0,0,0,0,0.0668,0.067,0.0755,0.0756,0.0757,0.0845,0.0847,0.0849,0.092,0.092,0.0921,0.0921,0.1006,0.1009,0.1011,0,0,0,0,0,0,0,0,0,0,0,0,0,0.0731,0.067,0.0755,0.08,0.0804,0.0845,0.0847,0.0849,0.092,0.0921,0.0921,0.0921,0.1006,0.1008,0.1011,0.1021,0,0,0.1021,0.1022,0,0,0,0,0,0,0,0,0.0728,0.0735,0.0792,0.0797,0.0802,0.0868,0.0848,0.0905,0.092,0.0881,0.0921,0.0922,0.0957,0.0964,0.0986,0.1025,0.1029,0.1021,0.1023,0.1024,0.1025,0,0,0,0,0,0,0,0.0723,0.0732,0.0796,0.0793,0.0799,0.0823,0.0833,0.086,0.0919,0.0884,0.0889,0.0891,0.096,0.0983,0.0989,0.103,0.1021,0.1023,0.1025,0.1027,0.1132,0.1133,0,0,0,0,0,0,0.0702,0.0727,0.0793,0.0798,0.076,0.0824,0.0835,0.085,0.0919,0.0928,0.0891,0.0894,0.0978,0.0985,0.0992,0.1068,0.1024,0.1027,0.1029,0.1131,0.1133,0.1134,0,0,0,0,0,0,0.07,0.0707,0.0789,0.076,0.0772,0.0824,0.0841,0.0852,0.0899,0.0923,0.0933,0.0929,0.0979,0.0988,0.1033,0.1069,0.1028,0.1031,0.113,0.1132,0.1133,0.118,0,0,0,0,0,0,0.0697,0.0706,0.0727,0.0759,0.0773,0.0825,0.084,0.0853,0.0896,0.0903,0.0959,0.0966,0.098,0.1028,0.1036,0.1073,0.1033,0.1129,0.1131,0.1133,0.1177,0.1183,0.1188,0,0,0,0,0,0.0694,0.072,0.0728,0.0737,0.0795,0.0825,0.0836,0.0876,0.0898,0.0922,0.0958,0.0966,0.1046,0.1032,0.104,0.1079,0.1128,0.113,0.1132,0.1175,0.1182,0.1188,0,0,0,0,0,0,0.0693,0.0729,0.074,0.0776,0.08,0.0836,0.0868,0.0889,0.094,0.0951,0.0979,0.0989,0.1046,0.1049,0.1033,0.1113,0.1088,0.1092,0.1117,0.1124,0.1129,0.1134,0.1036,0,0,0,0,0,0.0699,0.0727,0.0756,0.0781,0.0801,0.0838,0.0862,0.0882,0.0918,0.0944,0.0988,0.1025,0.1058,0.108,0.1111,0.1152,0.1154,0.1181,0.1186,0.1191,0.12,0.1235,0.1245,0.1141,0.1141,0.1141,0,0,0.0703,0.0724,0.0741,0.0783,0.0812,0.0844,0.0857,0.0893,0.0921,0.0942,0.1018,0.1051,0.1073,0.1125,0.115,0.1135,0.1218,0.1194,0.1197,0.1204,0.1239,0.1249,0.1258,0.1143,0.1142,0.1142,0,0,0.0712,0.0748,0.0775,0.0799,0.0834,0.0859,0.0872,0.0925,0.0959,0.1011,0.104,0.1092,0.1148,0.1178,0.1193,0.1243,0.1247,0.1257,0.1291,0.1325,0.1334,0.1342,0.1342,0.135,0.1257,0.1257,0.1257,0,0.0722,0.0752,0.0785,0.0812,0.0836,0.0869,0.0898,0.0934,0.0995,0.1034,0.1038,0.1153,0.1171,0.1236,0.1255,0.1258,0.1268,0.1266,0.1333,0.1341,0.1349,0.1347,0.1355,0.126,0.126,0.1259,0.1259,0,0.0739,0.0774,0.0794,0.0842,0.0872,0.0901,0.0941,0.0993,0.1037,0.1078,0.1165,0.12,0.1268,0.1284,0.1284,0.1357,0.1343,0.1338,0.1317,0.1362,0.1357,0.1364,0.1264,0.1263,0.1262,0.1261,0,0,0.0741,0.0799,0.0808,0.0835,0.089,0.0916,0.0973,0.104,0.1092,0.116,0.1235,0.1299,0.1338,0.1358,0.1379,0.1409,0.1459,0.1401,0.1401,0.1401,0.1522,0.1453,0.1454,0.1476,0.1478,0.148,0.1491,0,0.0752,0.0794,0.0828,0.0883,0.0911,0.0965,0.1012,0.1074,0.1138,0.1221,0.1276,0.1361,0.1357,0.1408,0.1434,0.1465,0.1484,0.1456,0.1478,0.1478,0.1414,0.1463,0.1486,0.1496,0.1498,0.1499,0.15,0,0.0757,0.0785,0.0833,0.09,0.0923,0.0968,0.1063,0.1121,0.1228,0.1277,0.137,0.1421,0.1502,0.1482,0.1547,0.1535,0.1533,0.1539,0.154,0.1468,0.1425,0.1446,0.1513,0.1512,0.1511,0.151,0.1509,0,0.0721,0.0793,0.0832,0.0855,0.0935,0.0986,0.1054,0.1152,0.1207,0.1351,0.1398,0.1496,0.1555,0.1585,0.1605,0.159,0.1653,0.1627,0.1556,0.155,0.1585,0.1577,0.1662,0.1662,0.1662,0.1662,0.1662,0,0.0708,0.0741,0.0827,0.0848,0.0909,0.0985,0.1085,0.1154,0.126,0.1335,0.1444,0.1496,0.1589,0.1632,0.1631,0.1619,0.1674,0.1573,0.156,0.1601,0.1594,0.1589,0.158,0.1663,0.1663,0.1663,0.1663,0,0.0652,0.0708,0.0758,0.0856,0.0893,0.095,0.109,0.1146,0.1264,0.1361,0.1414,0.1518,0.1595,0.1646,0.17,0.1645,0.165,0.1626,0.1662,0.1649,0.1508,0.1502,0.1542,0.154,0.1539,0.1537,0.1536,0,0.0624,0.0637,0.0751,0.0784,0.0837,0.0945,0.0999,0.1134,0.1191,0.1358,0.1371,0.1502,0.1568,0.1572,0.1638,0.1646,0.1625,0.1603,0.1559,0.1518,0.1502,0.1498,0.1494,0.1533,0.1533,0.1532,0.1532,0,0.0556,0.0606,0.0657,0.0721,0.0787,0.0865,0.0964,0.099,0.1154,0.1256,0.1328,0.1397,0.1472,0.1527,0.1558,0.1553,0.1611,0.1584,0.1587,0.1545,0.1507,0.1492,0.149,0.1526,0.1527,0.1527,0.1528,0,0.0511,0.0526,0.0597,0.0651,0.0724,0.0765,0.0838,0.0917,0.0995,0.117,0.1197,0.1338,0.1459,0.1479,0.1501,0.1512,0.148,0.1418,0.1428,0.1435,0.1401,0.1337,0.1303,0,0,0,0,0,0.0465,0.0474,0.0514,0.058,0.0649,0.0691,0.0792,0.0867,0.1019,0.1035,0.1119,0.1199,0.1284,0.1346,0.1336,0.1438,0.1469,0.1418,0.1397,0.1493,0.15,0.1471,0,0,0,0,0,0,0.0427,0.0465,0.0489,0.0513,0.0541,0.0604,0.0666,0.0758,0.0784,0.0944,0.0991,0.112,0.1206,0.1278,0.131,0.133,0.1292,0.1506,0.1503,0.1489,0.1495,0.1501,0.1474,0,0,0,0,0]},{"header":{"parameterUnit":"m.s-1","parameterCategory":2,"la1":30.2991,"la2":30.254,"lo1":-89.0895,"lo2":-89.0444,"dy":0.0017,"dx":0.0017,"nx":28,"ny":28,"refTime":"2025-09-15T21:00:00:Z","depth":"4","parameterNumber":3,"parameterNumberName":"V-component_of_CURRENTS"},"data":[0,0,0,0,0,0,0,0,0,0,0,0,0,0,0,0,0,0,0,0,0,0,0,0,0,0,0,0,0,0,0,0,0,0,0,0,0,0,0,0,0,0,0,0,0,0,0,0,0,0,0,0,0,0,0,0,0,0,0.0191,0.0191,0,0.0121,0.012,0.0119,0.0084,0.0085,0.0085,0.0085,0.0042,0.0041,0.0039,0,0,0,0,0,0,0,0,0,0,0,0,0,0.0227,0.0226,0.0191,0.0191,0.019,0.0121,0.012,0.0118,0.0084,0.0085,0.0085,0.0085,0.0043,0.0041,0.0039,0,0,0,0,0,0,0,0,0,0,0,0,0,0.0187,0.0226,0.0191,0.0166,0.0164,0.0121,0.012,0.0118,0.0084,0.0085,0.0085,0.0085,0.0043,0.0041,0.0039,0.002,0,0,0.0033,0.0032,0,0,0,0,0,0,0,0,0.0189,0.0186,0.0171,0.0168,0.0165,0.0114,0.0116,0.0087,0.0084,0.0112,0.0085,0.0085,0.007,0.0066,0.0048,0.0018,0.0016,0.0033,0.0031,0.0031,0.003,0,0,0,0,0,0,0,0.0192,0.0188,0.0161,0.017,0.0166,0.0135,0.013,0.011,0.0088,0.0109,0.0107,0.0103,0.0068,0.005,0.0047,0.0015,0.0033,0.0031,0.003,0.0029,-0.002,-0.002,0,0,0,0,0,0,0.0209,0.0191,0.0163,0.0159,0.0181,0.0135,0.0129,0.0128,0.0088,0.0083,0.0103,0.0102,0.0053,0.0049,0.0045,0.0047,0.0031,0.0029,0.0028,-0.002,-0.002,-0.002,0,0,0,0,0,0,0.021,0.0207,0.0166,0.0175,0.0168,0.0134,0.0133,0.0126,0.0112,0.0083,0.0078,0.0096,0.0053,0.0048,0.0031,0.0044,0.0028,0.0026,-0.002,-0.002,-0.002,0.0033,0,0,0,0,0,0,0.0212,0.0208,0.0212,0.0176,0.0168,0.0149,0.0133,0.0125,0.011,0.0108,0.0076,0.0072,0.0053,0.0034,0.0029,0.0041,0.0024,-0.002,-0.002,-0.002,0.0031,0.0034,0.0037,0,0,0,0,0,0.0213,0.0217,0.0213,0.021,0.0176,0.0149,0.0142,0.0117,0.0109,0.0104,0.0082,0.0073,0.003,0.0032,0.0026,0.0038,-0.002,-0.002,-0.002,0.003,0.0034,0.0037,0,0,0,0,0,0,0.023,0.0213,0.0208,0.0206,0.0185,0.0145,0.0138,0.012,0.0096,0.0096,0.0069,0.0063,0.0052,0.0034,0.0037,0.0021,0.0004,0.0003,0.0044,0.0048,0.0051,0.0062,0.0023,0,0,0,0,0,0.0239,0.0241,0.0215,0.0214,0.0206,0.0173,0.0159,0.0143,0.0117,0.0106,0.0084,0.0061,0.0044,0.0038,0.0015,0.0008,-0.0033,0.001,0.0014,0.0017,0.002,-0.0042,-0.0045,-0.0021,-0.0021,-0.0021,0,0,0.0248,0.0236,0.0239,0.0218,0.0199,0.0197,0.0165,0.0149,0.0152,0.0107,0.0101,0.0069,0.0042,0.0032,0.0027,0.0022,-0.0012,0.0016,0.0019,0.0021,-0.0043,-0.0045,-0.0047,-0.0021,-0.0021,-0.0021,0,0,0.0265,0.0255,0.0264,0.0253,0.0232,0.0212,0.0212,0.0176,0.0167,0.0151,0.0123,0.0098,0.0069,0.0053,0.0042,0.0047,0.0002,0.0041,0.0073,0.0012,0.001,0.0007,-0.0048,-0.0056,0.0048,0.0048,0.0049,0,0.0276,0.0284,0.0261,0.0266,0.0263,0.0226,0.0234,0.0219,0.0183,0.0173,0.0159,0.0098,0.0081,0.0066,0.0074,0.0057,0.0011,0.0065,0.0016,0.0013,0.0009,-0.0047,-0.0056,0.0051,0.0051,0.005,0.005,0,0.0301,0.031,0.0312,0.0313,0.0305,0.0303,0.0285,0.0274,0.0253,0.0228,0.0197,0.0155,0.0118,0.0112,0.01,0.0071,0.0042,0.0024,0.001,0.001,-0.0049,-0.006,0.0055,0.0054,0.0053,0.0052,0,0,0.0316,0.0329,0.0331,0.0339,0.0331,0.0321,0.0334,0.0319,0.0309,0.0274,0.0249,0.0223,0.018,0.0165,0.0133,0.0092,0.0035,0.0056,0.0051,0.0006,-0.0105,-0.0089,-0.01,0.0001,-0.0001,-0.0002,-0.0136,0,0.0341,0.0365,0.0367,0.0389,0.0395,0.0379,0.0386,0.0369,0.0339,0.0303,0.0259,0.0221,0.0208,0.0179,0.0139,0.0051,0.0008,0.0073,-0.0104,-0.0109,-0.009,-0.011,-0.0007,-0.0145,-0.0147,-0.0149,-0.0151,0,0.0362,0.0374,0.0406,0.0417,0.0418,0.0428,0.0415,0.0418,0.0374,0.0345,0.03,0.0246,0.0192,0.017,0.0035,0.0072,-0.0004,-0.007,-0.0077,-0.0086,-0.0112,-0.0147,-0.0171,-0.0169,-0.0168,-0.0166,-0.0165,0,0.0367,0.0397,0.0423,0.043,0.0439,0.045,0.0454,0.0426,0.0417,0.0366,0.0327,0.0252,0.0194,0.0095,-0.002,-0.0007,-0.0187,-0.019,-0.0246,-0.0246,-0.0244,-0.024,-0.0287,-0.0287,-0.0287,-0.0286,-0.0286,0,0.038,0.0398,0.0429,0.0439,0.0457,0.0465,0.0471,0.0457,0.0426,0.0409,0.0348,0.03,0.0168,0.0056,-0.0038,-0.0176,-0.0205,-0.0246,-0.0281,-0.0219,-0.021,-0.0252,-0.0246,-0.0291,-0.029,-0.0289,-0.0288,0,0.0372,0.0398,0.0423,0.0449,0.046,0.0471,0.0488,0.0488,0.0458,0.0429,0.0412,0.0307,0.0174,0.0037,-0.0143,-0.0203,-0.0334,-0.0374,-0.0301,-0.0329,-0.0349,-0.0339,-0.0454,-0.0454,-0.0455,-0.0455,-0.0455,0,0.0365,0.038,0.0424,0.0444,0.046,0.0486,0.0505,0.0502,0.0502,0.044,0.0421,0.0289,0.0215,-0.0032,-0.0166,-0.036,-0.0371,-0.0443,-0.038,-0.0345,-0.0368,-0.0357,-0.0346,-0.0456,-0.0456,-0.0456,-0.0457,0,0.0345,0.0368,0.0395,0.044,0.0474,0.0506,0.0534,0.053,0.0531,0.0496,0.0424,0.0306,0.015,-0.0019,-0.0179,-0.0308,-0.0398,-0.0448,-0.0447,-0.0389,-0.0349,-0.0369,-0.0358,-0.0458,-0.0458,-0.0458,-0.0458,0,0.0333,0.0348,0.0397,0.0435,0.0484,0.0525,0.0534,0.0542,0.0538,0.0481,0.0457,0.0305,0.021,0.0006,-0.0137,-0.0269,-0.0286,-0.031,-0.0317,-0.0317,-0.0223,-0.0149,-0.0233,0,0,0,0,0,0.0323,0.0353,0.0388,0.0442,0.0493,0.0519,0.0558,0.0566,0.0562,0.0523,0.0493,0.0364,0.0154,0.0051,-0.0077,-0.0146,-0.0316,-0.03,-0.0348,-0.0467,-0.0465,-0.0375,0,0,0,0,0,0,0.032,0.0362,0.0389,0.0452,0.0482,0.0539,0.0565,0.0559,0.0535,0.0509,0.0396,0.034,0.0127,0.0225,-0.008,-0.0122,-0.0166,-0.0404,-0.0406,-0.0468,-0.0467,-0.0465,-0.0372,0,0,0,0,0]}]]